Location: Unspecified
(41.5000°N, 0.0000°E)
Time: 20:16:43
(UTC+00:00)

Vanguard 3 - Pass Details

Date: 20 June 2019
Orbit: 507 x 3264 km, 33.4° (Epoch: 15 July)

Event Time Altitude Azimuth Distance (km) Brightness Sun altitude
Rises 14:33:16 0° 260° (W) 4,738 11.6 53.7°
Reaches altitude 10° 14:37:19 10° 254° (WSW) 3,283 11.1 52.9°
Maximum altitude 14:44:09 38° 190° (S) 1,296 9.0 51.7°
Drops below altitude 10° 14:48:31 10° 121° (ESE) 2,077 9.1 50.9°
Sets 14:50:33 0° 112° (ESE) 2,824 9.6 50.6°
